| time (UTC) | temp F | wind direction | speed MPH | gust MPH | rain 1hr in | rain 24hr in | rain mn in | humidity % | barometer mb |
| 20260504201535 | 68 | 209 | 7.0 | 19.0 | 0.00 | 0.00 | 0.00 | 36 | 1006.9 |
| 20260504200035 | 68 | 250 | 5.0 | 16.0 | 0.00 | 0.00 | 0.00 | 34 | 1006.9 |
| 20260504194550 | 69 | 197 | 7.0 | 16.0 | 0.00 | 0.00 | 0.00 | 35 | 1007.0 |
| 20260504193031 | 68 | 149 | 6.0 | 15.0 | 0.00 | 0.00 | 0.00 | 35 | 1007.0 |
| 20260504191532 | 68 | 221 | 5.0 | 16.0 | 0.00 | 0.00 | 0.00 | 35 | 1007.0 |
| 20260504190031 | 68 | 224 | 7.0 | 21.0 | 0.00 | 0.00 | 0.00 | 34 | 1007.3 |
| 20260504184533 | 67 | 176 | 7.0 | 19.0 | 0.00 | 0.00 | 0.00 | 36 | 1007.2 |
| 20260504183020 | 67 | 167 | 10.0 | 24.0 | 0.00 | 0.00 | 0.00 | 35 | 1007.4 |
| 20260504181519 | 66 | 143 | 9.0 | 23.0 | 0.00 | 0.00 | 0.00 | 35 | 1007.5 |
| 20260504180020 | 68 | 210 | 9.0 | 19.0 | 0.00 | 0.00 | 0.00 | 34 | 1007.5 |
| 20260504174512 | 65 | 290 | 6.0 | 19.0 | 0.00 | 0.00 | 0.00 | 37 | 1007.6 |
| 20260504173015 | 64 | 264 | 7.0 | 19.0 | 0.00 | 0.00 | 0.00 | 36 | 1007.6 |
| 20260504171509 | 64 | 263 | 8.0 | 18.0 | 0.00 | 0.00 | 0.00 | 36 | 1007.8 |
| 20260504081537 | 43 | 148 | 2.0 | 8.0 | 0.00 | 0.00 | 0.00 | 64 | 1010.5 |
| 20260504050014 | 41 | 166 | 0.0 | 4.0 | 0.00 | 0.00 | 0.00 | 61 | 1010.7 |
| 20260504044513 | 40 | 276 | 0.0 | 1.0 | 0.00 | 0.00 | 0.00 | 62 | 1010.7 |
| 20260504043012 | 40 | 281 | 0.0 | 2.0 | 0.00 | 0.00 | 0.00 | 62 | 1010.6 |
| 20260504041510 | 40 | 154 | 0.0 | 4.0 | 0.00 | 0.00 | 0.00 | 64 | 1010.6 |
| 20260504040008 | 40 | 231 | 0.0 | 4.0 | 0.00 | 0.00 | 0.00 | 64 | 1010.4 |
| 20260504034506 | 40 | 263 | 0.0 | 2.0 | 0.00 | 0.05 | 0.00 | 64 | 1010.4 |
| 20260504033005 | 40 | 297 | 0.0 | 2.0 | 0.00 | 0.05 | 0.00 | 65 | 1010.4 |
| 20260504031505 | 40 | 221 | 0.0 | 1.0 | 0.00 | 0.05 | 0.00 | 65 | 1010.3 |
| 20260504030004 | 41 | 252 | 0.0 | 2.0 | 0.00 | 0.05 | 0.00 | 64 | 1010.2 |
| 20260504024505 | 41 | 226 | 0.0 | 2.0 | 0.00 | 0.08 | 0.00 | 64 | 1010.3 |
| 20260504023003 | 42 | 235 | 0.0 | 1.0 | 0.00 | 0.08 | 0.00 | 62 | 1010.3 |
| 20260504021503 | 42 | 271 | 0.0 | 1.0 | 0.00 | 0.08 | 0.00 | 61 | 1010.4 |
| 20260504020002 | 42 | 297 | 0.0 | 1.0 | 0.00 | 0.08 | 0.00 | 59 | 1010.2 |
| 20260504014504 | 42 | 248 | 0.0 | 1.0 | 0.00 | 0.08 | 0.00 | 60 | 1010.3 |
| 20260504013001 | 43 | 316 | 0.0 | 1.0 | 0.00 | 0.08 | 0.00 | 59 | 1010.2 |
| 20260504011501 | 43 | 298 | 0.0 | 1.0 | 0.00 | 0.08 | 0.00 | 59 | 1009.9 |
| 20260504010123 | 43 | 302 | 0.0 | 1.0 | 0.00 | 0.08 | 0.00 | 58 | 1009.9 |
| 20260504004559 | 43 | 294 | 0.0 | 0.0 | 0.00 | 0.08 | 0.00 | 59 | 1009.6 |
| 20260504003059 | 43 | 281 | 0.0 | 1.0 | 0.00 | 0.08 | 0.00 | 58 | 1009.5 |
| 20260504001611 | 44 | 288 | 0.0 | 2.0 | 0.00 | 0.08 | 0.00 | 57 | 1009.4 |
| 20260504000105 | 44 | 300 | 0.0 | 1.0 | 0.00 | 0.08 | 0.00 | 56 | 1009.1 |
| 20260503234658 | 45 | 283 | 0.0 | 6.0 | 0.00 | 0.10 | 0.00 | 55 | 1009.0 |
| 20260503233056 | 46 | 291 | 0.0 | 3.0 | 0.00 | 0.10 | 0.00 | 53 | 1008.8 |
| 20260503231557 | 47 | 256 | 0.0 | 4.0 | 0.00 | 0.10 | 0.00 | 52 | 1008.7 |
| 20260503230059 | 47 | 232 | 1.0 | 5.0 | 0.00 | 0.10 | 0.00 | 49 | 1008.5 |
| 20260503224555 | 48 | 283 | 1.0 | 7.0 | 0.00 | 0.18 | 0.00 | 47 | 1008.3 |
| 20260503223055 | 48 | 301 | 1.0 | 7.0 | 0.00 | 0.18 | 0.00 | 47 | 1008.2 |
| 20260503221553 | 49 | 318 | 1.0 | 8.0 | 0.00 | 0.18 | 0.00 | 46 | 1008.0 |
| 20260503220052 | 49 | 295 | 1.0 | 8.0 | 0.00 | 0.18 | 0.00 | 47 | 1007.9 |
| 20260503214555 | 49 | 330 | 0.0 | 6.0 | 0.00 | 0.21 | 0.00 | 46 | 1007.8 |
| 20260503213117 | 49 | 257 | 3.0 | 9.0 | 0.00 | 0.21 | 0.00 | 44 | 1007.7 |
| 20260503211613 | 49 | 270 | 0.0 | 6.0 | 0.00 | 0.21 | 0.00 | 47 | 1007.6 |
| 20260503210044 | 48 | 334 | 0.0 | 6.0 | 0.00 | 0.21 | 0.00 | 47 | 1007.5 |
| 20260503204559 | 48 | 247 | 2.0 | 5.0 | 0.00 | 0.22 | 0.00 | 46 | 1007.3 |
| 20260503203043 | 48 | 298 | 2.0 | 13.0 | 0.00 | 0.22 | 0.00 | 47 | 1007.1 |